Location: Trani
(41.2830°N, 16.4170°E)
Time: 09:26:31
(UTC+02:00)

ISS - Pass Details

Date: 03 August 2021
Orbit: 417 x 422 km, 51.6° (Epoch: 28 September)

Event Time Altitude Azimuth Distance (km) Brightness Sun altitude
Rises 20:38:03 0° 302° (WNW) 2,403 3.0 -5.7°
Reaches altitude 10° 20:40:13 10° 296° (WNW) 1,526 1.0 -6.1°
Maximum altitude 20:43:32 48° 221° (SW) 561 -3.0 -6.6°
Drops below altitude 10° 20:46:48 10° 146° (SE) 1,501 -1.5 -7.2°
Enters shadow 20:47:14 - 144° (SE) 1,671 -1.3 -7.2°
